Regional Weather Roundup
Issued by NWS

Home | Current Version | Previous Version | Graphics & Text | Print | Product List | Glossary Off
Versions: 1 2 3 4 5 6 7 8 9 10 11 12 13 14 15 16 17 18 19 20 21 22 23 24 25 26 27 28 29 30 31 32 33 34 35 36 37 38 39 40 41 42 43 44 45 46 47 48 49 50

000
ASUS43 KMKX 210411
RWRWI

WISCONSIN REGIONAL WEATHER ROUNDUP
NATIONAL WEATHER SERVICE MILWAUKEE/SULLIVAN WI
1100 PM CDT SUN APR 20 2014

NOTE: "FAIR" INDICATES FEW OR NO CLOUDS BELOW 12,000 FEET WITH NO
SIGNIFICANT WEATHER AND/OR OBSTRUCTIONS TO VISIBILITY.

WIZ001-002-006>008-014>016-023>028-210500-
NORTHWEST WISCONSIN

CITY           SKY/WX    TMP DP  RH WIND       PRES   REMARKS
SUPERIOR ARPT  CLEAR     36  33  88 CALM      29.97F
ASHLAND        CLEAR     35  34  96 SW5       30.00F WCI  31
HAYWARD        FAIR      45  32  60 CALM      29.99F
SIREN          CLEAR     54  30  39 E5        29.96F
RICE LAKE      CLEAR     52  48  86 E3        29.98F
LADYSMITH      CLEAR     53  50  90 CALM      30.00F
EAU CLAIRE     MOCLDY    56  53  90 CALM      29.96S
MENOMONIE      PTCLDY    54  52  94 SE3       29.96F FOG
NEW RICHMOND   PTCLDY    55  53  93 CALM      29.96F
OSCEOLA        CLEAR     49  40  70 CALM      29.98S
$$

WIZ003>005-009-010-017-018-210500-
NORTH CENTRAL WISCONSIN

CITY           SKY/WX    TMP DP  RH WIND       PRES   REMARKS
WOODRUFF       CLEAR     42  36  81 CALM      30.01F
RHINELANDER    FOG       45  44  97 CALM      30.01F VSB 1/4
EAGLE RIVER    FOG       40  40 100 CALM      30.01F VSB 1/4
LAND O LAKES   CLEAR     35  32  88 CALM      30.02F
PHILLIPS       CLEAR     46  46  99 CALM      30.00F FOG
TOMAHAWK       FOG       45  44  95 CALM      30.00F VSB 1
MEDFORD        FOG       50  49  99 E3        29.98F VSB 1/4
MERRILL        FOG       44  44 100 CALM      30.00F VSB 1
$$

WIZ029-030-035-036-043>047-210500-
CENTRAL WISCONSIN

CITY           SKY/WX    TMP DP  RH WIND       PRES   REMARKS
WAUSAU         CLOUDY    55  52  89 CALM      29.97F
MOSINEE        MOCLDY    52  52 100 CALM      30.00F
MARSHFIELD     CLOUDY    54  52  93 E3        29.98F FOG
STEVENS POINT  CLOUDY    52  50  95 CALM      30.00F
WAUPACA        MOCLDY    54  52  94 CALM      30.00F FOG
WAUTOMA        FOG       52  52 100 NE3       29.99F VSB 1
WISC RAPIDS    LGT RAIN  54  52  93 E5        29.99F
CAMP DOUGLAS   FOG       51  51 100 CALM      29.98S VSB 3/4
$$

WIZ011>013-019>022-031-037>040-048>050-210500-
NORTHEAST WISCONSIN

CITY           SKY/WX    TMP DP  RH WIND       PRES   REMARKS
ANTIGO         CLOUDY    47  47  99 CALM      30.00F FOG
STURGEON BAY   CLOUDY    50  41  71 S6        30.01S
GREEN BAY      MOCLDY    51  50  96 N3        30.00F FOG
MANITOWOC      CLOUDY    45  39  79 CALM      30.00F
APPLETON       CLOUDY    52  52 100 CALM      30.01
CLINTONVILLE   CLOUDY    52  50  93 CALM      30.00F FOG
OSHKOSH        MOCLDY    50  47  89 CALM      29.98F
$$

WIZ032>034-041-042-053>061-210500-
SOUTHWEST WISCONSIN

CITY           SKY/WX    TMP DP  RH WIND       PRES   REMARKS
LA CROSSE      CLOUDY    54  53  97 CALM      29.97S FOG
SPARTA         CLOUDY    53  52  96 CALM      29.99S
VIROQUA        CLOUDY    56  56 100 S5        30.00S
BOSCOBEL       CLOUDY    58  55  90 NW5       29.98R
PRAIRIE DU CHI CLOUDY    58  55  88 W9        29.99R
PLATTEVILLE    FAIR      64  46  52 S6        29.99S
$$

WIZ056-057-062-063-064-067-068-210500-
SOUTH CENTRAL WISCONSIN

CITY           SKY/WX    TMP DP  RH WIND       PRES   REMARKS
BARABOO/DELLS  MOCLDY    56  51  84 CALM      29.97F
LONE ROCK      CLOUDY    57  55  93 CALM      29.97F
WATERTOWN      CLOUDY    59  47  65 CALM      29.98F
MADISON        CLOUDY    58  54  86 VRB3      29.99F
MIDDLETON      FAIR      56  52  87 NE8       29.99R
MONROE         MOCLDY    65  44  46 S10       29.98F
JANESVILLE     CLOUDY    64  37  36 CALM      29.98S
$$

WIZ051-052-058>065-066-070>072-210500-
SOUTHEAST WISCONSIN

CITY           SKY/WX    TMP DP  RH WIND       PRES   REMARKS
MILWAUKEE      CLOUDY    62  40  44 S8        30.00F
WAUKESHA       MOCLDY    59  41  51 CALM      30.01S
MILWAUKEE/TIMM MOCLDY    61  37  41 S5        30.00F
RACINE         PTCLDY    58  39  49 S5        30.02F
BURLINGTON     PTCLDY    55  43  64 W3        30.00S
KENOSHA        PTCLDY    55  40  56 S5        30.00F
FOND DU LAC    CLOUDY    52  47  83 CALM      29.98F
SHEBOYGAN      MOCLDY    46  38  73 CALM      29.99F
WEST BEND      MOCLDY    52  41  66 CALM      29.99F
JUNEAU         LGT RAIN  58  44  60 CALM      30.00S
$$

LSZ147-162-210500-
LAKE SUPERIOR

STATION/POSITION TIME  TEMP    WIND        PRES    WAVE
                       AIR SEA DIR/SP/G            HT/PER
                 (UTC) (F)     (DEG/KT/KT) (MB)    (FT/S)
DEVILS ISLAND    0400   50     160/ 13/ 15 1015.1F
PORT WING        0300   46     130/  3/  8 1015.2F
SAXON HARBOR     0300          190/  3/  4 1015.6
$$

LMZ867-665-643>646-210500-
LAKE MICHIGAN

STATION/POSITION TIME  TEMP    WIND        PRES    WAVE
                       AIR SEA DIR/SP/G            HT/PER
                 (UTC) (F)     (DEG/KT/KT) (MB)    (FT/S)
NORTHPORT PIER   0300   47     160/  3/  6 1016.3F
SISTER BAY       0309   49        CALM       N/A
KEWAUNEE LAKESHO 0300   41     170/  3/  4 1017.2F
SHEBOYGAN LAKESH 0400   45      CALM  /  1 1016.5F
PORT WASHINGTON  0340   46      30/  4/  5 1016.3F
MILWAUKEE LAKESH 0300   54     140/  6/  8   N/A
KENOSHA   LAKESH 0400   50     180/ 10/ 12   N/A
$$

TC  - TEMPERATURE IN CELSIUS
VSB - VISIBILITY IN STATUTE MILES
WCI - WIND CHILL INDEX
HX  - HEAT INDEX




USA.gov is the U.S. government's official web portal to all federal, state and local government web resources and services.